Location: Memmingen
(47.9830°N, 10.1733°E)
Time: 10:35:53
(UTC+01:00)

Envisat - Visible Passes

Search period start: 24 November 2017 00:00
Search period end: 04 December 2017 00:00
Orbit: 764 x 766 km, 98.2° (Epoch: 23 November)

Date Brightness Start Highest point End Pass type
(mag) Time Alt. Az. Time Alt. Az. Time Alt. Az.
24 Nov 5.2 18:24:47 10° NNE 18:24:47 10° NNE 18:24:50 10° NNE visible
24 Nov 5.6 20:04:59 11° NNW 20:04:59 11° NNW 20:05:12 10° NNW visible
25 Nov 5.3 19:27:55 12° N 19:27:55 12° N 19:28:21 10° N visible
26 Nov 5.2 18:50:50 11° N 18:50:50 11° N 18:51:08 10° N visible
27 Nov 5.6 19:53:58 11° NNW 19:53:58 11° NNW 19:54:04 10° NNW visible
28 Nov 5.4 19:16:53 11° N 19:16:53 11° N 19:17:07 10° N visible
30 Nov 5.6 19:42:54 10° N 19:42:54 10° N 19:42:55 10° N visible
01 Dec 5.4 19:05:48 10° N 19:05:48 10° N 19:05:52 10° N visible
